Time,TemperatureF,DewpointF,PressureIn,WindDirection,WindDirectionDegrees,WindSpeedMPH,WindSpeedGustMPH,Humidity,HourlyPrecipIn,Conditions,Clouds,dailyrainin,SolarRadiationWatts/m^2,SoftwareType,DateUTC
2013-05-09 00:02:00,66.0,56.0,-100.00,SSE,157,10.0,15.0,70,0.00,,,0.00,0.000000,,2013-05-09 05:02:00,
2013-05-09 00:32:00,65.0,54.0,-100.00,SSE,167,9.0,16.0,67,0.00,,,0.00,0.000000,,2013-05-09 05:32:00,
2013-05-09 00:42:00,65.0,54.0,-100.00,SSE,167,9.0,16.0,67,0.00,,,0.00,0.000000,,2013-05-09 05:42:00,
2013-05-09 00:52:00,65.0,54.0,-100.00,SSE,167,9.0,16.0,67,0.00,,,0.00,0.000000,,2013-05-09 05:52:00,
2013-05-09 01:02:00,65.0,54.0,-100.00,SSE,167,9.0,16.0,67,0.00,,,0.00,0.000000,,2013-05-09 06:02:00,
2013-05-09 01:32:00,64.0,54.0,-100.00,SSE,160,7.0,12.0,70,0.00,,,0.00,0.000000,,2013-05-09 06:32:00,
2013-05-09 01:42:00,64.0,54.0,-100.00,SSE,160,7.0,12.0,70,0.00,,,0.00,0.000000,,2013-05-09 06:42:00,
2013-05-09 01:52:00,64.0,54.0,-100.00,SSE,160,7.0,12.0,70,0.00,,,0.00,0.000000,,2013-05-09 06:52:00,
2013-05-09 02:01:00,64.0,54.0,-100.00,SSE,160,7.0,12.0,70,0.00,,,0.00,0.000000,,2013-05-09 07:01:00,
2013-05-09 02:32:00,63.0,55.0,-100.00,SSE,152,7.0,11.0,74,0.00,,,0.00,0.000000,,2013-05-09 07:32:00,
2013-05-09 02:43:00,63.0,55.0,-100.00,SSE,152,7.0,11.0,74,0.00,,,0.00,0.000000,,2013-05-09 07:43:00,
2013-05-09 02:52:00,63.0,55.0,-100.00,SSE,152,7.0,11.0,74,0.00,,,0.00,0.000000,,2013-05-09 07:52:00,
2013-05-09 03:02:00,63.0,55.0,-100.00,SSE,152,7.0,11.0,74,0.00,,,0.00,0.000000,,2013-05-09 08:02:00,
2013-05-09 03:32:00,63.0,55.0,-100.00,SSE,165,7.0,11.0,76,0.00,,,0.00,0.000000,,2013-05-09 08:32:00,
2013-05-09 03:42:00,63.0,55.0,-100.00,SSE,165,7.0,11.0,76,0.00,,,0.00,0.000000,,2013-05-09 08:42:00,
2013-05-09 03:52:00,63.0,55.0,-100.00,SSE,165,7.0,11.0,76,0.00,,,0.00,0.000000,,2013-05-09 08:52:00,
2013-05-09 04:02:00,63.0,55.0,-100.00,SSE,165,7.0,11.0,76,0.00,,,0.00,0.000000,,2013-05-09 09:02:00,
2013-05-09 04:32:00,63.0,55.0,-100.00,SSE,168,7.0,14.0,75,0.00,,,0.00,0.000000,,2013-05-09 09:32:00,
2013-05-09 04:43:00,63.0,55.0,-100.00,SSE,168,7.0,14.0,75,0.00,,,0.00,0.000000,,2013-05-09 09:43:00,
2013-05-09 04:53:00,63.0,55.0,-100.00,SSE,168,7.0,14.0,75,0.00,,,0.00,0.000000,,2013-05-09 09:53:00,
2013-05-09 05:02:00,63.0,55.0,-100.00,SSE,168,7.0,14.0,75,0.00,,,0.00,0.000000,,2013-05-09 10:02:00,
2013-05-09 05:33:00,62.0,56.0,-100.00,SSE,161,8.0,12.0,81,0.00,,,0.00,0.000000,,2013-05-09 10:33:00,
2013-05-09 05:42:00,62.0,56.0,-100.00,SSE,161,8.0,12.0,81,0.00,,,0.00,0.000000,,2013-05-09 10:42:00,
2013-05-09 05:52:00,62.0,56.0,-100.00,SSE,161,8.0,12.0,81,0.00,,,0.00,0.000000,,2013-05-09 10:52:00,
2013-05-09 06:02:00,62.0,56.0,-100.00,SSE,161,8.0,12.0,81,0.00,,,0.00,0.000000,,2013-05-09 11:02:00,
2013-05-09 06:32:00,61.0,57.0,-100.00,SSE,149,7.0,11.0,87,0.00,,,0.00,0.000000,,2013-05-09 11:32:00,
2013-05-09 06:42:00,61.0,57.0,-100.00,SSE,149,7.0,11.0,87,0.00,,,0.00,0.000000,,2013-05-09 11:42:00,
2013-05-09 06:52:00,61.0,57.0,-100.00,SSE,149,7.0,11.0,87,0.00,,,0.00,0.000000,,2013-05-09 11:52:00,
2013-05-09 07:01:00,61.0,57.0,-100.00,SSE,149,7.0,11.0,87,0.00,,,0.00,0.000000,,2013-05-09 12:01:00,
2013-05-09 07:32:00,62.0,60.0,-100.00,SW,225,8.0,12.0,93,0.00,,,-99.99,18.000000,,2013-05-09 12:32:00,
2013-05-09 07:42:00,62.0,60.0,-100.00,SW,225,8.0,12.0,93,0.00,,,-99.99,18.000000,,2013-05-09 12:42:00,
2013-05-09 07:52:00,62.0,60.0,-100.00,SW,225,8.0,12.0,93,0.00,,,-99.99,18.000000,,2013-05-09 12:52:00,
2013-05-09 08:01:00,62.0,60.0,-100.00,SW,225,8.0,12.0,93,0.00,,,-99.99,18.000000,,2013-05-09 13:01:00,
2013-05-09 08:32:00,59.0,56.0,-100.00,NW,315,10.0,21.0,91,0.03,,,0.03,41.000000,,2013-05-09 13:32:00,
2013-05-09 08:42:00,59.0,56.0,-100.00,NW,315,10.0,21.0,91,0.03,,,0.03,41.000000,,2013-05-09 13:42:00,
2013-05-09 08:52:00,59.0,56.0,-100.00,NW,315,10.0,21.0,91,0.03,,,0.03,41.000000,,2013-05-09 13:52:00,
2013-05-09 09:01:00,59.0,56.0,-100.00,NW,315,10.0,21.0,91,0.03,,,0.03,41.000000,,2013-05-09 14:01:00,
2013-05-09 09:32:00,63.0,53.0,-100.00,WNW,292,12.0,19.0,69,0.00,,,0.03,399.000000,,2013-05-09 14:32:00,
2013-05-09 09:42:00,63.0,53.0,-100.00,WNW,292,12.0,19.0,69,0.00,,,0.03,399.000000,,2013-05-09 14:42:00,
2013-05-09 09:52:00,63.0,53.0,-100.00,WNW,292,12.0,19.0,69,0.00,,,0.03,399.000000,,2013-05-09 14:52:00,
2013-05-09 10:01:00,63.0,53.0,-100.00,WNW,292,12.0,19.0,69,0.00,,,0.03,399.000000,,2013-05-09 15:01:00,
2013-05-09 10:33:00,65.0,52.0,-100.00,NW,324,11.0,23.0,63,0.00,,,0.03,546.000000,,2013-05-09 15:33:00,
2013-05-09 10:43:00,65.0,52.0,-100.00,NW,324,11.0,23.0,63,0.00,,,0.03,546.000000,,2013-05-09 15:43:00,
2013-05-09 10:53:00,65.0,52.0,-100.00,NW,324,11.0,23.0,63,0.00,,,0.03,546.000000,,2013-05-09 15:53:00,
2013-05-09 11:03:00,65.0,52.0,-100.00,NW,324,11.0,23.0,63,0.00,,,0.03,546.000000,,2013-05-09 16:03:00,
2013-05-09 11:33:00,72.0,55.0,-100.00,SSE,150,7.0,16.0,56,0.00,,,0.03,839.000000,,2013-05-09 16:33:00,
2013-05-09 11:42:00,72.0,55.0,-100.00,SSE,150,7.0,16.0,56,0.00,,,0.03,839.000000,,2013-05-09 16:42:00,
2013-05-09 11:53:00,72.0,55.0,-100.00,SSE,150,7.0,16.0,56,0.00,,,0.03,839.000000,,2013-05-09 16:53:00,
2013-05-09 12:02:00,72.0,55.0,-100.00,SSE,150,7.0,16.0,56,0.00,,,0.03,839.000000,,2013-05-09 17:02:00,
2013-05-09 12:32:00,71.0,54.0,-100.00,South,175,12.0,17.0,56,0.00,,,0.03,1075.000000,,2013-05-09 17:32:00,
2013-05-09 12:42:00,71.0,54.0,-100.00,South,175,12.0,17.0,56,0.00,,,0.03,1075.000000,,2013-05-09 17:42:00,
2013-05-09 12:55:00,71.0,54.0,-100.00,South,175,12.0,17.0,56,0.00,,,0.03,1075.000000,,2013-05-09 17:55:00,
2013-05-09 13:01:00,71.0,54.0,-100.00,South,175,12.0,17.0,56,0.00,,,0.03,1075.000000,,2013-05-09 18:01:00,
2013-05-09 13:32:00,72.0,55.0,-100.00,South,172,11.0,17.0,56,0.00,,,0.03,1141.000000,,2013-05-09 18:32:00,
2013-05-09 13:42:00,72.0,55.0,-100.00,South,172,11.0,17.0,56,0.00,,,0.03,1141.000000,,2013-05-09 18:42:00,
2013-05-09 13:52:00,72.0,55.0,-100.00,South,172,11.0,17.0,56,0.00,,,0.03,1141.000000,,2013-05-09 18:52:00,
2013-05-09 14:01:00,72.0,55.0,-100.00,South,172,11.0,17.0,56,0.00,,,0.03,1141.000000,,2013-05-09 19:01:00,
2013-05-09 15:32:00,71.0,55.0,-100.00,SSW,192,13.0,21.0,57,-99.99,,,0.03,806.000000,,2013-05-09 20:32:00,
2013-05-09 15:42:00,71.0,55.0,-100.00,SSW,192,13.0,21.0,57,-99.99,,,0.03,806.000000,,2013-05-09 20:42:00,
2013-05-09 15:52:00,71.0,55.0,-100.00,SSW,192,13.0,21.0,57,-99.99,,,0.03,806.000000,,2013-05-09 20:52:00,
2013-05-09 16:02:00,71.0,55.0,-100.00,SSW,192,13.0,21.0,57,-99.99,,,0.03,806.000000,,2013-05-09 21:02:00,
2013-05-09 17:33:00,66.0,58.0,-100.00,SW,214,8.0,14.0,76,-99.99,,,0.03,94.000000,,2013-05-09 22:33:00,
2013-05-09 17:42:00,66.0,58.0,-100.00,SW,214,8.0,14.0,76,-99.99,,,0.03,94.000000,,2013-05-09 22:42:00,
2013-05-09 17:52:00,66.0,58.0,-100.00,SW,214,8.0,14.0,76,-99.99,,,0.03,94.000000,,2013-05-09 22:52:00,
2013-05-09 18:02:00,66.0,58.0,-100.00,SW,214,8.0,14.0,76,-99.99,,,0.03,94.000000,,2013-05-09 23:02:00,
2013-05-09 18:32:00,63.0,60.0,-100.00,SW,227,7.0,18.0,91,0.16,,,0.19,35.000000,,2013-05-09 23:32:00,
2013-05-09 18:42:00,63.0,60.0,-100.00,SW,227,7.0,18.0,91,0.16,,,0.19,35.000000,,2013-05-09 23:42:00,
2013-05-09 18:52:00,63.0,60.0,-100.00,SW,227,7.0,18.0,91,0.16,,,0.19,35.000000,,2013-05-09 23:52:00,
2013-05-09 19:01:00,63.0,60.0,-100.00,SW,227,7.0,18.0,91,0.16,,,0.19,35.000000,,2013-05-10 00:01:00,
2013-05-09 20:32:00,63.0,63.0,-100.00,SSW,193,7.0,11.0,100,-99.99,,,0.19,20.000000,,2013-05-10 01:32:00,
2013-05-09 20:42:00,63.0,63.0,-100.00,SSW,193,7.0,11.0,100,-99.99,,,0.19,20.000000,,2013-05-10 01:42:00,
2013-05-09 20:52:00,63.0,63.0,-100.00,SSW,193,7.0,11.0,100,-99.99,,,0.19,20.000000,,2013-05-10 01:52:00,
2013-05-09 21:02:00,63.0,63.0,-100.00,SSW,193,7.0,11.0,100,-99.99,,,0.19,20.000000,,2013-05-10 02:02:00,
2013-05-09 21:32:00,61.0,61.0,-100.00,South,187,3.0,9.0,100,0.00,,,0.19,0.000000,,2013-05-10 02:32:00,
2013-05-09 21:42:00,61.0,61.0,-100.00,South,187,3.0,9.0,100,0.00,,,0.19,0.000000,,2013-05-10 02:42:00,
2013-05-09 21:52:00,61.0,61.0,-100.00,South,187,3.0,9.0,100,0.00,,,0.19,0.000000,,2013-05-10 02:52:00,
2013-05-09 22:01:00,61.0,61.0,-100.00,South,187,3.0,9.0,100,0.00,,,0.19,0.000000,,2013-05-10 03:01:00,
2013-05-09 22:33:00,61.0,61.0,-100.00,NW,325,7.0,10.0,100,0.00,,,0.19,0.000000,,2013-05-10 03:33:00,
2013-05-09 22:43:00,61.0,61.0,-100.00,NW,325,7.0,10.0,100,0.00,,,0.19,0.000000,,2013-05-10 03:43:00,
2013-05-09 22:53:00,61.0,61.0,-100.00,NW,325,7.0,10.0,100,0.00,,,0.19,0.000000,,2013-05-10 03:53:00,
2013-05-09 23:03:00,61.0,61.0,-100.00,NW,325,7.0,10.0,100,0.00,,,0.19,0.000000,,2013-05-10 04:03:00,
2013-05-09 23:33:00,61.0,61.0,-100.00,ENE,78,1.0,8.0,100,0.00,,,0.19,0.000000,,2013-05-10 04:33:00,
2013-05-09 23:43:00,61.0,61.0,-100.00,ENE,78,1.0,8.0,100,0.00,,,0.19,0.000000,,2013-05-10 04:43:00,
2013-05-09 23:53:00,61.0,61.0,-100.00,ENE,78,1.0,8.0,100,0.00,,,0.19,0.000000,,2013-05-10 04:53:00,